Location: Unspecified
(51.6250°N, 0.8230°E)
Time: 11:34:09
(UTC+01:00)

CZ-3 Stage 3 - Visible Passes

Search period start: 27 June 2017 00:00
Search period end: 07 July 2017 00:00
Orbit: 418 x 34780 km, 30.9° (Epoch: 26 June)

Date Brightness Start Highest point End Pass type
(mag) Time Alt. Az. Time Alt. Az. Time Alt. Az.
27 Jun 9.8 21:15:49 10° W 22:27:57 31° WSW 01:55:47 10° WSW visible
28 Jun 8.6 17:27:54 10° WSW 18:17:02 57° S 01:25:15 10° SW visible
29 Jun 7.1 13:51:33 10° SSW 18:35:56 30° SE 22:19:42 10° SSE visible
30 Jun 9.9 21:06:32 10° W 22:17:17 31° WSW 01:40:33 10° WSW visible
01 Jul 8.6 17:18:35 10° WSW 18:06:34 56° SSW 01:11:31 10° SW visible
02 Jul 7.1 13:42:13 10° SSW 18:23:12 29° SE 22:07:48 10° SSE visible
03 Jul 10.0 20:57:18 10° W 22:06:38 30° WSW 01:25:15 10° WSW visible
04 Jul 8.5 17:09:17 10° WSW 17:56:10 56° SSW 00:57:38 10° SW visible
05 Jul 7.0 13:32:53 10° SSW 18:10:22 28° SE 21:55:46 10° SSE visible
